DW6228 Weather Reports


time (UTC)temp
F
wind
direction
speed
knots
gust
knots
rain 1hr
in
rain 24hr
in
rain mn
in
humidity
%
barometer
mb
20260505163252 49 201 0.0 0.0 0.00 0.20 0.00 97 1019.8
20260505162229 50 189 0.0 4.3 0.00 0.20 0.00 97 1020.0
20260505161157 49 176 0.0 0.0 0.00 0.20 0.00 97 1020.0
20260505160221 49 277 0.0 2.6 0.00 0.20 0.00 97 1020.0
20260505153057 50 258 0.0 0.0 0.00 0.22 0.00 97 1020.4
20260505152104 50 224 0.0 0.9 0.00 0.22 0.00 97 1020.4
20260505151057 50 291 0.0 2.6 0.00 0.29 0.00 97 1020.5
20260505124844 50 109 0.0 0.9 0.00 0.40 0.32 97 1021.5
20260505122730 50 194 0.0 0.9 0.00 0.60 0.32 97 1021.6
20260505120549 50 189 0.0 0.0 0.00 0.70 0.32 97 1021.8
20260505115546 50 296 0.0 0.0 0.00 0.73 0.32 96 1021.8
20260505114523 50 225 0.0 0.0 0.00 0.74 0.32 97 1021.8
20260505112419 50 263 0.0 0.0 0.00 0.74 0.32 96 1021.7
20260505111421 50 245 0.0 0.0 0.00 0.74 0.32 96 1021.7
20260505110424 50 282 0.0 0.0 0.00 0.74 0.32 96 1021.8
20260505101223 50 334 0.0 0.0 0.00 0.77 0.32 96 1021.8
20260505100153 50 74 0.0 0.0 0.00 0.77 0.31 96 1021.8
20260505095121 50 306 0.0 0.0 0.00 0.77 0.31 96 1021.8
20260505093012 50 303 0.0 0.0 0.00 0.88 0.31 96 1021.8
20260505092027 50 314 0.0 0.0 0.00 0.89 0.31 96 1021.8
20260505091002 50 19 0.0 1.7 0.00 0.90 0.31 95 1021.8
20260505090012 50 26 0.0 1.7 0.00 0.89 0.30 95 1021.8
20260505083852 50 320 0.0 1.7 0.00 0.90 0.30 95 1021.8
20260505082907 50 314 0.0 1.7 0.00 0.96 0.29 95 1021.7
20260505081931 50 333 0.0 2.6 0.00 1.12 0.29 94 1021.6
20260505080917 50 342 0.0 1.7 0.00 1.13 0.29 94 1021.6
20260505075926 50 336 0.0 0.0 0.00 1.13 0.29 94 1021.5
20260505074942 50 308 0.0 0.9 0.00 1.18 0.29 93 1021.4
20260505074001 51 299 0.0 2.6 0.00 1.18 0.29 93 1021.3
20260505072958 51 12 0.0 0.0 0.00 1.20 0.29 93 1021.2
20260505072018 51 353 0.0 0.0 0.00 1.22 0.29 93 1021.1
20260505070944 51 327 0.0 0.0 0.00 1.25 0.29 93 1021.0
20260505065944 51 304 0.0 0.0 0.00 1.26 0.29 92 1021.0
20260505064944 51 302 0.0 0.0 0.00 1.26 0.29 92 1021.0
20260505063932 51 300 0.0 0.0 0.00 1.27 0.29 91 1020.8
20260505062953 52 327 0.0 0.0 0.00 1.28 0.29 91 1020.7
20260505061935 52 287 0.0 0.9 0.00 1.28 0.29 90 1020.6
20260505060914 52 322 0.0 0.9 0.00 1.28 0.29 90 1020.6
20260505055923 53 36 0.0 0.0 0.00 1.28 0.29 90 1020.6
20260505054940 53 0 0.0 1.7 0.00 1.28 0.29 90 1020.4
20260505054002 53 29 0.0 0.0 0.00 1.29 0.29 89 1020.3
20260505052936 53 304 0.0 1.7 0.00 1.29 0.29 89 1020.2
20260505051948 53 323 0.0 0.9 0.00 1.30 0.29 88 1020.0
20260505050926 53 308 0.0 0.9 0.00 1.30 0.29 88 1020.0
20260505041752 53 74 0.0 0.9 0.00 1.33 0.29 91 1019.7
20260505040740 53 334 0.0 5.2 0.00 1.33 0.29 92 1019.6
20260505035724 53 313 0.0 1.7 0.00 1.33 0.29 93 1019.6
20260505034726 53 313 0.0 4.3 0.00 1.33 0.29 93 1019.5
20260505033735 53 265 0.0 0.0 0.00 1.33 0.29 94 1019.5
20260505032709 53 296 0.0 5.2 0.00 1.33 0.29 94 1019.5
20260505030605 53 241 0.0 0.0 0.00 1.33 0.29 96 1019.6
20260505025612 53 4 0.0 4.3 0.00 1.33 0.29 96 1019.5
20260505024637 52 252 0.0 3.5 0.00 1.33 0.29 96 1019.7
20260505023631 52 357 0.0 3.5 0.00 1.33 0.29 96 1019.7
20260505022622 52 308 0.0 3.5 0.00 1.33 0.29 96 1019.8
20260505021605 52 20 0.0 0.9 0.00 1.33 0.29 97 1019.8
20260505020545 52 92 0.0 2.6 0.00 1.33 0.29 96 1019.8
20260505015603 52 50 0.0 1.7 0.00 1.33 0.29 97 1019.7
20260505014622 52 204 0.0 2.6 0.00 1.33 0.29 97 1019.9
20260505013615 52 298 0.0 1.7 0.00 1.33 0.29 97 1020.0
20260505012630 52 343 0.0 0.0 0.00 1.33 0.29 97 1020.0
20260505011602 52 210 0.0 0.9 0.00 1.33 0.29 97 1020.0
20260505010542 51 282 0.0 1.7 0.00 1.33 0.29 97 1020.0
20260505005543 52 270 0.0 0.0 0.00 1.33 0.29 97 1019.9
20260505004542 52 356 0.0 0.0 0.00 1.33 0.29 98 1019.8
20260505003555 51 210 0.0 0.0 0.00 1.33 0.29 97 1019.7
20260505002600 51 5 0.0 1.7 0.00 1.32 0.28 98 1019.5
20260505001614 51 19 0.0 0.9 0.00 1.32 0.28 98 1019.4
20260504235523 50 344 0.0 0.0 0.00 1.32 0.28 97 1019.4
20260504234529 51 325 0.0 0.0 0.00 1.32 0.28 98 1019.4
20260504232401 50 47 0.0 0.0 0.00 1.32 0.28 98 1019.4
20260504231329 49 24 0.0 0.0 0.00 1.32 0.28 98 1019.2
20260504230316 49 41 0.0 0.0 0.00 1.32 0.28 98 1019.1
20260504224145 48 41 0.0 0.0 0.00 1.32 0.28 98 1019.0
20260504223133 48 60 0.0 0.0 0.00 1.32 0.28 98 1018.8
20260504221000 48 315 0.0 0.0 0.00 1.31 0.27 98 1018.6
20260504220009 48 327 0.0 0.0 0.00 1.31 0.27 98 1018.3
20260504213808 48 278 0.0 0.0 0.00 1.31 0.27 98 1017.9
20260504211639 48 299 0.0 0.0 0.00 1.31 0.27 98 1017.4
20260504205510 49 41 0.0 0.0 0.00 1.31 0.27 98 1017.1
20260504204505 49 288 0.0 0.0 0.00 1.31 0.27 98 1016.8
20260504202305 49 316 0.0 0.0 0.00 1.30 0.26 98 1016.4
20260504200134 49 332 0.0 6.1 0.04 1.29 0.25 98 1016.2
20260504193940 49 293 0.0 0.0 0.00 1.28 0.24 98 1015.9
20260504192921 49 315 0.0 0.0 0.00 1.27 0.23 97 1015.9
20260504191925 49 329 0.0 0.0 0.04 1.27 0.23 97 1015.8
20260504190942 49 317 0.0 0.0 0.04 1.26 0.23 98 1015.7
20260504190001 49 298 0.0 0.0 0.00 1.25 0.22 97 1015.6
20260504184949 49 76 0.0 0.0 0.04 1.25 0.22 98 1015.5
20260504183941 49 62 0.0 0.9 0.15 1.25 0.21 98 1015.3
20260504182950 49 330 0.0 2.6 0.07 1.23 0.19 97 1015.1
20260504181942 50 235 0.0 3.5 0.00 1.22 0.18 97 1015.0
20260504180943 50 26 0.0 0.9 0.03 1.21 0.17 97 1014.9
20260504175932 50 221 0.0 2.6 0.03 1.21 0.17 97 1014.9
20260504173843 50 318 0.0 0.0 0.00 1.19 0.15 97 1014.8
20260504172842 50 173 0.0 1.7 0.00 1.19 0.15 97 1014.7
20260504171817 50 143 0.0 0.0 0.00 1.18 0.14 97 1014.6
20260504170825 50 321 0.0 0.0 0.00 1.18 0.14 97 1014.5